This is the latest recevied weather packets stored in our database for station/object WD0REW. If no packets are shown the sender has not sent any weather packets the latest 10 day(s).
| Time | Temp. | Humidity | Pressure | Rain* | Wind** | Luminosity | Snow |
|---|---|---|---|---|---|---|---|
| 1777900616 | 19.44° C | 53% | 1010.2 hPa | 0 mm | - | 214 W/m² | - |
| 1777900313 | 19.44° C | 52% | 1010 hPa | 0 mm | - | 200 W/m² | - |
| 1777900009 | 19.44° C | 53% | 1010.1 hPa | 0 mm | - | 183 W/m² | - |
| 1777899706 | 18.89° C | 53% | 1010.3 hPa | 0 mm | - | 166 W/m² | - |
| 1777899404 | 18.89° C | 55% | 1010.4 hPa | 0 mm | - | 42 W/m² | - |
| 1777899101 | 18.33° C | 54% | 1010.2 hPa | 0 mm | - | 127 W/m² | - |
| 1777898798 | 17.78° C | 55% | 1010.2 hPa | 0 mm | - | 35 W/m² | - |
| 1777898496 | 17.78° C | 56% | 1010.3 hPa | 0 mm | - | 75 W/m² | - |
| 1777898193 | 17.22° C | 56% | 1010.2 hPa | 0 mm | - | 31 W/m² | - |
| 1777897890 | 17.22° C | 57% | 1010.3 hPa | 0 mm | - | 38 W/m² | - |
| 1777897586 | 17.22° C | 58% | 1010.4 hPa | 0 mm | - | 29 W/m² | - |
| 1777897282 | 16.67° C | 58% | 1010.2 hPa | 0 mm | - | 25 W/m² | - |
| 1777896978 | 16.67° C | 57% | 1010.4 hPa | 0 mm | - | 22 W/m² | - |
| 1777896675 | 16.67° C | 57% | 1010.4 hPa | 0 mm | - | 22 W/m² | - |
| 1777896372 | 16.67° C | 57% | 1010.4 hPa | 0 mm | - | 21 W/m² | - |
| 1777896070 | 16.67° C | 58% | 1010.5 hPa | 0 mm | - | 19 W/m² | - |
| 1777895768 | 16.11° C | 59% | 1010.4 hPa | 0 mm | - | 15 W/m² | - |
| 1777895465 | 16.11° C | 59% | 1010.5 hPa | 0 mm | - | 12 W/m² | - |
| 1777895163 | 16.11° C | 58% | 1010.5 hPa | 0 mm | - | 10 W/m² | - |
| 1777894859 | 16.11° C | 58% | 1010.4 hPa | 0 mm | - | 8 W/m² | - |
| 1777894556 | 16.11° C | 59% | 1010.4 hPa | 0 mm | - | 7 W/m² | - |
| 1777894254 | 16.11° C | 58% | 1010.3 hPa | 0 mm | - | 5 W/m² | - |
| 1777893950 | 16.11° C | 58% | 1010.3 hPa | 0 mm | - | 4 W/m² | - |
| 1777893647 | 16.11° C | 58% | 1010.5 hPa | 0 mm | - | 2 W/m² | - |
| 1777893343 | 16.11° C | 58% | 1010.5 hPa | 0 mm | - | 2 W/m² | - |
* Rain latest hour (hover to see other rain measurements)
** Current wind speed in m/s (hover to see current wind gust speed)